Amsterdam, Netherlands

10:32 PM CEST on October 01, 2016 (GMT +0200)
Schiphol

Weather History for EHAM - November, 2012

Change the Weather History Date:

Sunday, November 4, 2012

  Actual Average Record
Temperature  
Mean Temperature 41 °F -  
Max Temperature 47 °F 52 °F 64 °F (2011)
Min Temperature 35 °F 43 °F 33 °F (1997)
Degree Days  
Heating Degree Days 24    
Moisture  
Dew Point 40 °F    
Average Humidity 90    
Maximum Humidity 100    
Minimum Humidity 73    
Precipitation  
Precipitation 0.43 in - - ()
Sea Level Pressure  
Sea Level Pressure 29.42 in    
Wind  
Wind Speed 9 mph ()    
Max Wind Speed 22 mph    
Max Gust Speed -    
Visibility 6.0 miles    
Events Rain , Thunderstorm    
Averages and records for this station are not official NWS values.
T = Trace of Precipitation, MM = Missing Value Source: Averaged Metar Reports

Daily Weather History Graph

Daily Weather History Graph

Search for Another Location

Airport or City:

Trip Planner

Search our weather history database for the weather conditions in past years. The results will help you decide how hot, cold, wet, or windy it might be!

Date:

Astronomy

Nov. 04, 2012 Rise Set
Actual Time 7:42 AM CET 5:05 PM CET
Civil Twilight 7:06 AM CET 5:41 PM CET
Nautical Twilight 6:25 AM CET 6:22 PM CET
Astronomical Twilight 5:46 AM CET 7:01 PM CET
Moon 9:19 PM CET (11/4) 12:26 PM CET (11/4)
Length of Visible Light 10h 35m
Length of Day
9h 22m
Waning Gibbous, 74% of the Moon is Illuminated
Nov 4
Waning Gibbous
Nov 7
Last Quarter
Nov 13
New
Nov 20
First Quarter
Nov 28
Full

Hourly Weather History & Observations

Time (CET) Temp. Windchill Dew Point Humidity Pressure Visibility Wind Dir Wind Speed Gust Speed Precip Events Conditions
12:25 AM 41.0 °F 36.4 °F 39.2 °F 93% 29.53 in 6.2 mi South 6.9 mph - N/A Thunderstorm Scattered Clouds
12:55 AM 41.0 °F 35.8 °F 39.2 °F 93% 29.56 in 6.2 mi SSW 8.1 mph - N/A Thunderstorm Partly Cloudy
1:00 AM 42 °F - 38 °F 82% 29.57 in 28 mi SW 6.7 mph - - Thunderstorm Light Thunderstorm
1:25 AM 41.0 °F - 39.2 °F 93% 29.56 in 6.2 mi Variable 1.2 mph - N/A Thunderstorm Partly Cloudy
1:55 AM 41.0 °F 36.4 °F 37.4 °F 87% 29.56 in 6.2 mi SSW 6.9 mph - N/A   Partly Cloudy
2:25 AM 41.0 °F 35.2 °F 37.4 °F 87% 29.56 in 6.2 mi South 9.2 mph - N/A   Partly Cloudy
2:55 AM 39.2 °F 33.0 °F 35.6 °F 87% 29.56 in - South 9.2 mph - N/A   Clear
3:25 AM 39.2 °F 32.5 °F 37.4 °F 93% 29.56 in - South 10.4 mph - N/A   Clear
3:55 AM 39.2 °F 33.6 °F 35.6 °F 87% 29.53 in - SSE 8.1 mph - N/A   Clear
4:00 AM 38 °F - 36 °F 90% 29.57 in 22 mi South 8.9 mph - -   Partly Cloudy
4:25 AM 37.4 °F 32.8 °F 35.6 °F 93% 29.53 in - SSE 5.8 mph - N/A   Clear
4:55 AM 37.4 °F 32.8 °F 35.6 °F 93% 29.53 in - SE 5.8 mph - N/A   Clear
5:25 AM 37.4 °F 32.8 °F 35.6 °F 93% 29.53 in - South 5.8 mph - N/A   Clear
5:55 AM 35.6 °F 29.2 °F 35.6 °F 100% 29.53 in - SSE 8.1 mph - N/A   Clear
6:25 AM 37.4 °F 30.8 °F 35.6 °F 93% 29.53 in - SE 9.2 mph - N/A   Clear
6:55 AM 37.4 °F 30.8 °F 35.6 °F 93% 29.53 in - SSE 9.2 mph - N/A   Clear
7:00 AM 36 °F - 35 °F 95% 29.55 in 6 mi SSE 8.9 mph - -   Partly Cloudy
7:25 AM 35.6 °F 29.2 °F 35.6 °F 100% 29.53 in 5.6 mi SSE 8.1 mph - N/A   Unknown
7:55 AM 35.6 °F 29.9 °F 35.6 °F 100% 29.53 in 5.0 mi SSE 6.9 mph - N/A   Partly Cloudy
8:25 AM 35.6 °F 30.7 °F 35.6 °F 100% 29.53 in 4.3 mi SE 5.8 mph - N/A   Partly Cloudy
8:55 AM 37.4 °F 30.8 °F 37.4 °F 100% 29.53 in 4.3 mi SE 9.2 mph - N/A   Scattered Clouds
9:25 AM 39.2 °F 32.0 °F 37.4 °F 93% 29.50 in 5.0 mi SSE 11.5 mph - N/A   Scattered Clouds
9:55 AM 41.0 °F 35.8 °F 39.2 °F 93% 29.50 in 5.0 mi SE 8.1 mph - N/A   Scattered Clouds
10:00 AM 41 °F - 40 °F 92% 29.51 in 6 mi SE 8.9 mph - -   Mist
10:25 AM 42.8 °F 36.6 °F 41.0 °F 93% 29.47 in 5.6 mi SE 11.5 mph - N/A   Partly Cloudy
10:55 AM 42.8 °F 37.5 °F 41.0 °F 93% 29.47 in 6.2 mi SE 9.2 mph - N/A   Partly Cloudy
11:25 AM 44.6 °F 39.7 °F 42.8 °F 93% 29.44 in 6.2 mi SE 9.2 mph - N/A   Partly Cloudy
11:55 AM 44.6 °F 39.2 °F 42.8 °F 93% 29.44 in 6.2 mi SE 10.4 mph - N/A   Partly Cloudy
12:25 PM 44.6 °F 39.2 °F 42.8 °F 93% 29.42 in 6.2 mi ESE 10.4 mph - N/A   Partly Cloudy
12:55 PM 44.6 °F 38.8 °F 42.8 °F 93% 29.42 in 6.2 mi ESE 11.5 mph - N/A   Partly Cloudy
1:00 PM 45 °F - 42 °F 83% 29.42 in 13 mi ESE 11.2 mph - -   Partly Cloudy
1:25 PM 44.6 °F 39.2 °F 42.8 °F 93% 29.39 in 6.2 mi ESE 10.4 mph - N/A   Scattered Clouds
1:55 PM 44.6 °F 38.8 °F 41.0 °F 87% 29.36 in 6.2 mi ESE 11.5 mph - N/A Rain Light Rain
2:25 PM 44.6 °F 39.2 °F 42.8 °F 93% 29.36 in 6.2 mi ESE 10.4 mph - N/A Rain Rain
2:55 PM 44.6 °F 40.2 °F 42.8 °F 93% 29.33 in 4.3 mi SE 8.1 mph - N/A Rain Rain
3:25 PM 44.6 °F 40.7 °F 42.8 °F 93% 29.33 in 5.0 mi ESE 6.9 mph - N/A Rain Rain
3:55 PM 44.6 °F 40.7 °F 42.8 °F 93% 29.33 in 4.3 mi SE 6.9 mph - N/A Rain Rain
4:00 PM 44 °F - 42 °F 88% 29.32 in 5 mi ESE 8.9 mph - - Rain Heavy Rain
4:25 PM 42.8 °F 39.3 °F 41.0 °F 93% 29.30 in 6.2 mi ESE 5.8 mph - N/A Rain Light Rain
4:55 PM 42.8 °F 40.1 °F 41.0 °F 93% 29.30 in 6.2 mi East 4.6 mph - N/A   Scattered Clouds
5:25 PM 42.8 °F 38.6 °F 41.0 °F 93% 29.27 in 5.0 mi East 6.9 mph - N/A Rain Light Rain Showers
5:55 PM 44.6 °F 40.2 °F 42.8 °F 93% 29.27 in 6.2 mi South 8.1 mph - N/A Rain Light Rain Showers
6:25 PM 44.6 °F 38.4 °F 42.8 °F 93% 29.27 in 4.3 mi SSW 12.7 mph - N/A Rain Rain Showers
6:55 PM 46.4 °F 39.5 °F 42.8 °F 87% 29.27 in 6.2 mi SSW 17.3 mph - N/A Rain Light Rain Showers
7:00 PM 46 °F - 42 °F 81% 29.28 in 11 mi SSW 17.9 mph - - Rain Drizzle
7:25 PM 46.4 °F 39.0 °F 41.0 °F 81% 29.27 in 6.2 mi SW 19.6 mph - N/A   Scattered Clouds
7:55 PM 46.4 °F 39.0 °F 41.0 °F 81% 29.27 in 6.2 mi SSW 19.6 mph - N/A   Scattered Clouds
8:25 PM 46.4 °F 38.7 °F 41.0 °F 81% 29.27 in 6.2 mi SSW 20.7 mph - N/A   Mostly Cloudy
8:55 PM 46.4 °F 39.0 °F 41.0 °F 81% 29.30 in 6.2 mi SW 19.6 mph - N/A   Mostly Cloudy
9:25 PM 46.4 °F 39.0 °F 41.0 °F 81% 29.30 in 6.2 mi SSW 19.6 mph - N/A   Mostly Cloudy
9:55 PM 46.4 °F 39.0 °F 41.0 °F 81% 29.30 in 6.2 mi SSW 19.6 mph - N/A   Mostly Cloudy
10:00 PM 47 °F - 41 °F 73% 29.32 in 25 mi SSW 22.4 mph - -   Overcast
10:25 PM 46.4 °F 39.0 °F 41.0 °F 81% 29.30 in 6.2 mi SSW 19.6 mph - N/A Rain Light Rain Showers
10:55 PM 46.4 °F 39.2 °F 41.0 °F 81% 29.33 in 6.2 mi SSW 18.4 mph - N/A   Mostly Cloudy
11:25 PM 46.4 °F 38.7 °F 41.0 °F 81% 29.33 in 6.2 mi SSW 20.7 mph - N/A   Scattered Clouds
11:55 PM 46.4 °F 39.2 °F 41.0 °F 81% 29.33 in 6.2 mi SSW 18.4 mph - N/A   Mostly Cloudy